{"data":{"norad_id":47822,"intl_designator":"2021-018AM","name":"STARLINK-2407","alt_names":[],"object_type":"PAYLOAD","status":"ACTIVE","operator":null,"country":"US","launch_date":"2021-03-11","launch_site_code":"AFETR","launch_vehicle":null,"mission":null,"orbit_class":"UNKNOWN","rcs_meters":null,"size_class":null,"mass_kg":null,"dimensions":null,"purposes":["comms"],"wikipedia_slug":null,"has_3d_model":false,"image_url":null,"decayed_at":null,"tle_current":{"epoch":"2026-09-19T21:22:08.277312Z","epoch_age_seconds":81896,"freshness":"FRESH","line1":"1 47822U 21018AM  26262.89037358  .00003004  00000+0  10849-3 0  9997","line2":"2 47822  53.1578  71.5143 0001192  91.1153 268.9985 15.31708198306311","mean_motion":15.31708198,"eccentricity":0.0001192,"inclination_deg":53.1578,"raan_deg":71.5143,"arg_perigee_deg":91.1153,"mean_anomaly_deg":268.9985,"bstar":0.00010849,"rev_number":30631,"period_min":94.012684784233,"perigee_km":469.89917429838,"apogee_km":471.53194074809,"semimajor_km":6848.8525575232,"source":"CELESTRAK","updated_at":"2026-09-20T09:00:38.749809Z"}}}